Weather reports worldwide

Advertisment
Karlstad Flygplats, Sweden (2418): temperature & dewpoint: 04.07.2020 11:00:00 - 10.07.2020 11:00:00 (CEST)Karlstad Flygplats, Sweden (2418): wind speed: 04.07.2020 11:00:00 - 10.07.2020 11:00:00 (CEST)Karlstad Flygplats, Sweden (2418): wind direction: 04.07.2020 11:00:00 - 10.07.2020 11:00:00 (CEST)Karlstad Flygplats, Sweden (2418): reduced air pressure: 04.07.2020 11:00:00 - 10.07.2020 11:00:00 (CEST)Karlstad Flygplats, Sweden (2418): visibility: 04.07.2020 11:00:00 - 10.07.2020 11:00:00 (CEST)
Date & Time tt [°C] td [°C] ff [km/h] ff [kn] dd ppp [hPa] vv [km]
10.07.2020 11:00:00 - - - - - - -
10.07.2020 10:00:00 15,8 10,6 4 2 ESE 1008,5 30
10.07.2020 09:00:00 15,7 8,9 7 4 ENE 1008,5 50
10.07.2020 08:00:00 12,1 10,5 4 2 NNE 1008,6 50
10.07.2020 07:00:00 11,3 9,7 7 4 ENE 1008,9 50
10.07.2020 06:00:00 10,1 9,6 7 4 ENE 1009,0 50
10.07.2020 05:00:00 8,4 8,4 0 0 N 1009,1 45
10.07.2020 04:00:00 8,3 8,3 0 0 N 1009,5 50
10.07.2020 03:00:00 8,0 8,0 0 0 N 1009,6 45
10.07.2020 02:00:00 8,0 7,9 7 4 SSW 1009,7 35
10.07.2020 01:00:00 9,0 8,9 7 4 SSW 1009,8 50
10.07.2020 00:00:00 10,2 9,4 7 4 SSW 1009,8 50
09.07.2020 23:00:00 11,1 9,2 7 4 SSW 1009,8 50
09.07.2020 22:00:00 12,8 9,4 7 4 SSW 1009,7 50
09.07.2020 21:00:00 13,6 9,6 7 4 SSW 1009,5 50
09.07.2020 20:00:00 15,3 8,8 11 6 WSW 1009,4 50
09.07.2020 19:00:00 15,8 9,0 11 6 WSW 1009,5 50
09.07.2020 18:00:00 16,8 6,3 11 6 WSW 1009,6 50
09.07.2020 17:00:00 17,7 8,5 14 8 SW 1009,8 30
09.07.2020 16:00:00 16,9 7,8 11 6 SW 1009,8 45
09.07.2020 15:00:00 18,0 4,2 7 4 SW 1010,0 50
09.07.2020 14:00:00 18,4 4,2 7 4 NW 1010,0 50
09.07.2020 13:00:00 16,9 4,2 4 2 NNW 1010,4 50
09.07.2020 12:00:00 16,9 4,2 7 4 N 1010,6 40
09.07.2020 11:00:00 15,5 7,5 7 4 NW 1010,9 35
09.07.2020 10:00:00 15,3 7,1 7 4 ENE 1010,9 40
09.07.2020 09:00:00 13,8 7,1 11 6 N 1010,9 45
09.07.2020 08:00:00 12,5 7,2 11 6 NNE 1010,6 45
09.07.2020 07:00:00 11,2 8,2 11 6 N 1010,2 40
09.07.2020 06:00:00 9,5 8,4 7 4 NNW 1010,1 35
09.07.2020 05:00:00 7,6 7,2 7 4 N 1009,7 50
09.07.2020 04:00:00 6,8 6,8 4 2 W 1009,4 50
09.07.2020 03:00:00 7,9 7,9 7 4 NW 1009,1 50
09.07.2020 02:00:00 7,4 7,0 4 2 WSW 1009,0 50
09.07.2020 01:00:00 8,8 7,9 7 4 WSW 1008,7 50
09.07.2020 00:00:00 8,9 8,1 7 4 SW 1008,7 50
08.07.2020 23:00:00 9,8 8,6 11 6 WSW 1008,1 50
08.07.2020 22:00:00 10,0 9,1 11 6 SSW 1007,8 50
08.07.2020 21:00:00 11,2 10,3 7 4 S 1007,4 50
08.07.2020 20:00:00 12,9 10,1 7 4 S 1007,0 40
08.07.2020 19:00:00 11,2 9,5 7 4 N 1007,4 30
08.07.2020 18:00:00 16,0 7,5 7 4 SW 1006,4 50
08.07.2020 17:00:00 14,5 9,7 4 2 WNW 1006,3 45
08.07.2020 16:00:00 14,7 7,3 4 2 WNW 1006,2 40
08.07.2020 15:00:00 11,5 9,2 4 2 WNW 1006,2 50
08.07.2020 14:00:00 14,8 6,9 18 10 NW 1005,7 40
08.07.2020 13:00:00 12,9 7,6 22 12 NNW 1005,6 50
08.07.2020 12:00:00 11,1 8,0 22 12 NNW 1005,6 45
08.07.2020 11:00:00 9,8 7,9 18 10 NW 1005,0 50
08.07.2020 10:00:00 9,2 8,4 14 8 NNW 1004,5 40
08.07.2020 09:00:00 8,4 8,4 7 4 W 1003,8 17
08.07.2020 08:00:00 7,4 7,4 4 2 W 1003,5 29
08.07.2020 07:00:00 6,0 6,0 4 2 W 1003,3 35
08.07.2020 06:00:00 5,2 5,2 0 0 N 1003,3 45
08.07.2020 05:00:00 2,1 2,1 7 4 WNW 1003,2 3,0
08.07.2020 04:00:00 3,2 3,2 4 2 N 1003,1 0,3
08.07.2020 03:00:00 3,5 3,5 0 0 N 1003,0 2,1
08.07.2020 02:00:00 4,2 4,2 0 0 N 1003,3 10
08.07.2020 01:00:00 4,9 4,8 0 0 N 1003,3 1,1
08.07.2020 00:00:00 6,5 6,2 7 4 SSW 1003,5 50
07.07.2020 23:00:00 7,7 7,4 4 2 SSW 1003,7 50
07.07.2020 22:00:00 8,5 7,4 7 4 SE 1003,3 50
07.07.2020 21:00:00 10,3 5,3 18 10 SSW 1003,5 45
07.07.2020 20:00:00 11,3 6,6 11 6 WNW 1003,6 45
07.07.2020 19:00:00 11,3 5,6 29 16 WNW 1003,6 40
07.07.2020 18:00:00 13,3 5,9 25 14 SW 1003,2 35
07.07.2020 17:00:00 14,9 7,4 14 8 S 1002,8 40
07.07.2020 16:00:00 16,0 6,1 25 14 SSW 1002,7 35
07.07.2020 15:00:00 17,4 5,0 25 14 SSW 1002,6 40
07.07.2020 14:00:00 16,9 5,5 29 16 SSW 1002,9 45
07.07.2020 13:00:00 16,7 7,3 22 12 SSW 1003,3 50
07.07.2020 12:00:00 15,4 7,4 22 12 SW 1003,6 30
07.07.2020 11:00:00 15,6 6,3 22 12 SSW 1003,6 50
07.07.2020 10:00:00 14,9 7,9 14 8 SW 1003,4 50
07.07.2020 09:00:00 15,1 8,3 11 6 W 1003,0 45
07.07.2020 08:00:00 13,8 7,8 11 6 W 1003,1 50
07.07.2020 07:00:00 12,5 9,1 7 4 WSW 1002,9 40
07.07.2020 06:00:00 10,7 8,3 0 0 N 1002,7 50
07.07.2020 05:00:00 10,3 8,1 4 2 W 1002,3 50
07.07.2020 04:00:00 10,3 8,4 7 4 WSW 1001,6 50
07.07.2020 03:00:00 10,9 8,3 11 6 W 1000,8 50
07.07.2020 02:00:00 11,0 7,7 11 6 W 1000,3 50
07.07.2020 01:00:00 10,8 7,5 11 6 WNW 999,6 50
07.07.2020 00:00:00 10,9 8,6 11 6 W 998,5 50
06.07.2020 23:00:00 11,4 9,1 11 6 WNW 997,6 50
06.07.2020 22:00:00 12,4 10,4 14 8 WNW 996,2 50
06.07.2020 21:00:00 12,6 11,3 14 8 W 994,9 45
06.07.2020 20:00:00 12,2 10,8 14 8 WNW 993,8 45
06.07.2020 19:00:00 13,1 11,8 14 8 W 992,6 23
06.07.2020 18:00:00 13,6 13,1 11 6 WSW 991,4 40
06.07.2020 17:00:00 15,3 11,3 18 10 SSW 990,4 40
06.07.2020 16:00:00 13,5 12,1 18 10 SW 990,2 35
06.07.2020 15:00:00 14,3 10,3 25 14 SW 989,7 35
06.07.2020 14:00:00 13,3 10,8 29 16 SW 989,6 28
06.07.2020 13:00:00 12,5 10,6 29 16 SW 989,2 17
06.07.2020 12:00:00 14,3 10,3 32 18 SW 988,5 40
06.07.2020 11:00:00 12,8 10,5 36 19 SW 988,6 6
06.07.2020 10:00:00 13,5 9,7 32 18 SW 988,0 18
06.07.2020 09:00:00 13,8 9,0 40 21 SW 987,7 22
06.07.2020 08:00:00 12,8 9,4 29 16 SSW 987,7 16
06.07.2020 07:00:00 12,5 9,3 25 14 SSW 987,7 29
06.07.2020 06:00:00 11,8 8,8 29 16 SSW 988,1 30
06.07.2020 05:00:00 12,0 8,7 29 16 SSW 987,9 30
06.07.2020 04:00:00 11,6 8,5 29 16 SSW 988,2 35
06.07.2020 03:00:00 12,3 8,4 25 14 SW 988,6 35
06.07.2020 02:00:00 12,5 8,4 29 16 SW 988,7 40
06.07.2020 01:00:00 13,1 9,0 40 21 SW 988,6 35
06.07.2020 00:00:00 13,6 9,6 32 18 SW 988,4 40
05.07.2020 23:00:00 13,9 10,7 32 18 SSW 988,1 28
05.07.2020 22:00:00 13,5 11,4 29 16 SSW 988,0 30
05.07.2020 21:00:00 13,9 10,3 29 16 SSW 988,0 29
05.07.2020 20:00:00 14,5 9,7 36 19 SSW 988,0 35
05.07.2020 19:00:00 15,3 10,5 36 19 SW 988,2 35
05.07.2020 18:00:00 15,5 12,4 32 18 SW 988,1 20
05.07.2020 17:00:00 16,3 15,2 29 16 SSW 987,7 5
05.07.2020 16:00:00 17,5 15,8 25 14 SSW 987,5 40
05.07.2020 15:00:00 17,1 16,6 25 14 S 987,7 45
05.07.2020 14:00:00 15,8 15,8 25 14 SSE 988,1 26
05.07.2020 13:00:00 14,6 14,6 22 12 ESE 989,7 13
05.07.2020 12:00:00 12,9 12,9 14 8 E 992,1 11
05.07.2020 11:00:00 12,9 12,9 11 6 E 994,4 8
05.07.2020 10:00:00 12,5 12,5 7 4 ESE 996,2 9
05.07.2020 09:00:00 13,0 13,0 11 6 SSE 997,5 8
05.07.2020 08:00:00 13,4 13,4 0 0 N 998,4 9
05.07.2020 07:00:00 13,1 13,1 4 2 ESE 999,0 30
05.07.2020 06:00:00 12,5 12,5 4 2 E 1000,0 6
05.07.2020 05:00:00 12,7 12,6 4 2 E 1000,2 50
05.07.2020 04:00:00 11,7 11,7 4 2 SE 1001,0 35
05.07.2020 03:00:00 12,4 12,1 4 2 ESE 1001,2 45
05.07.2020 02:00:00 11,6 11,4 0 0 N 1001,8 40
05.07.2020 01:00:00 11,8 11,6 7 4 SW 1002,1 50
05.07.2020 00:00:00 11,6 11,1 7 4 SW 1002,1 50
04.07.2020 23:00:00 11,4 10,9 7 4 S 1002,1 50
04.07.2020 22:00:00 12,5 11,4 7 4 S 1002,2 45
04.07.2020 21:00:00 14,4 11,0 7 4 SW 1002,1 50
04.07.2020 20:00:00 15,3 10,7 7 4 SSW 1002,0 45
04.07.2020 19:00:00 16,7 9,9 7 4 SSW 1002,3 45
04.07.2020 18:00:00 16,6 9,5 4 2 S 1002,4 45
04.07.2020 17:00:00 15,9 9,1 0 0 N 1002,5 50
04.07.2020 16:00:00 17,0 10,1 7 4 WSW 1002,4 45
04.07.2020 15:00:00 14,9 9,0 11 6 N 1002,5 45
04.07.2020 14:00:00 14,1 9,7 11 6 NW 1002,5 50
04.07.2020 13:00:00 14,5 10,9 11 6 NW 1002,5 45
04.07.2020 12:00:00 12,4 11,1 14 8 N 1002,2 29
04.07.2020 11:00:00 11,6 10,8 11 6 NNW 1002,1 35

tt = temperature
td = dewpoint
ff = wind speed
dd = wind direction
ppp = reduced air pressure
vv = visibility

Next stations